Wetterdaten: aktuell Mittwoch, 11.12.2019 17:00
Datum Zeit Temperatur Luftfeuchte Luftdruck Regen Wind Richtung Richtung Sonnenschein UV-Index Solar Taupunkt Windchill Windben
11.12.2019 17:00 -0,8 C 47 % 1013,9 hPa 0,0 l/m 1,6 km/h (1 Bft) S 180 0 min 0 UV-I 0 W/m -10,7 C -0,8 C 11,3 km/h (2 Bft)
11.12.2019 16:45 -0,8 C 46 % 1014,3 hPa 0,0 l/m 0,0 km/h (0 Bft) S 180 0 min 0 UV-I 0 W/m -10,9 C -0,8 C 1,6 km/h (1 Bft)
11.12.2019 16:30 -0,7 C 50 % 1014,5 hPa 0,0 l/m 1,6 km/h (1 Bft) S 180 0 min 0 UV-I 9 W/m -9,8 C -0,7 C 4,8 km/h (1 Bft)
11.12.2019 16:15 -0,6 C 50 % 1014,6 hPa 0,0 l/m 3,2 km/h (1 Bft) S 180 0 min 0 UV-I 16 W/m -9,7 C -0,6 C 4,8 km/h (1 Bft)
11.12.2019 16:00 0,0 C 45 % 1014,8 hPa 0,0 l/m 1,6 km/h (1 Bft) S 180 0 min 0 UV-I 25 W/m -10,5 C 0,0 C 3,2 km/h (1 Bft)
11.12.2019 15:45 1,2 C 43 % 1015,0 hPa 0,0 l/m 1,6 km/h (1 Bft) S 180 0 min 0 UV-I 40 W/m -10,0 C 1,2 C 4,8 km/h (1 Bft)
11.12.2019 15:30 1,9 C 42 % 1015,1 hPa 0,0 l/m 0,0 km/h (0 Bft) S 180 0 min 0 UV-I 83 W/m -9,6 C 1,9 C 4,8 km/h (1 Bft)
11.12.2019 15:15 2,3 C 41 % 1015,2 hPa 0,0 l/m 1,6 km/h (1 Bft) S 180 0 min 0 UV-I 128 W/m -9,6 C 2,3 C 4,8 km/h (1 Bft)
11.12.2019 15:00 2,3 C 43 % 1015,5 hPa 0,0 l/m 1,6 km/h (1 Bft) S 180 15 min 0 UV-I 178 W/m -9,0 C 2,3 C 4,8 km/h (1 Bft)
11.12.2019 14:45 2,1 C 44 % 1015,5 hPa 0,0 l/m 3,2 km/h (1 Bft) S 180 15 min 0 UV-I 199 W/m -8,9 C 2,1 C 8,0 km/h (2 Bft)
11.12.2019 14:30 2,0 C 44 % 1015,8 hPa 0,0 l/m 3,2 km/h (1 Bft) S 180 15 min 0 UV-I 239 W/m -8,9 C 2,0 C 6,4 km/h (2 Bft)
11.12.2019 14:15 1,5 C 45 % 1015,9 hPa 0,0 l/m 3,2 km/h (1 Bft) S 180 15 min 0 UV-I 267 W/m -9,1 C 1,5 C 6,4 km/h (2 Bft)
11.12.2019 14:00 1,8 C 46 % 1016,2 hPa 0,0 l/m 3,2 km/h (1 Bft) S 180 15 min 0 UV-I 290 W/m -8,6 C 1,8 C 6,4 km/h (2 Bft)
11.12.2019 13:45 1,6 C 47 % 1016,4 hPa 0,0 l/m 3,2 km/h (1 Bft) S 180 15 min 0 UV-I 318 W/m -8,5 C 1,6 C 8,0 km/h (2 Bft)
11.12.2019 13:30 1,1 C 47 % 1016,5 hPa 0,0 l/m 4,8 km/h (1 Bft) S 180 15 min 0 UV-I 330 W/m -8,9 C 1,1 C 8,0 km/h (2 Bft)
11.12.2019 13:15 0,6 C 49 % 1016,5 hPa 0,0 l/m 3,2 km/h (1 Bft) S 180 15 min 0 UV-I 350 W/m -8,9 C 0,6 C 8,0 km/h (2 Bft)
11.12.2019 13:00 0,1 C 50 % 1016,7 hPa 0,0 l/m 3,2 km/h (1 Bft) S 180 15 min 1 UV-I 353 W/m -9,1 C 0,1 C 8,0 km/h (2 Bft)
11.12.2019 12:45 -0,2 C 49 % 1016,9 hPa 0,0 l/m 4,8 km/h (1 Bft) S 180 15 min 1 UV-I 359 W/m -9,6 C -0,2 C 9,7 km/h (2 Bft)
11.12.2019 12:30 0,5 C 51 % 1017,2 hPa 0,0 l/m 3,2 km/h (1 Bft) S 180 15 min 1 UV-I 362 W/m -8,4 C 0,5 C 6,4 km/h (2 Bft)
11.12.2019 12:15 -0,7 C 51 % 1017,7 hPa 0,0 l/m 3,2 km/h (1 Bft) S 180 15 min 1 UV-I 364 W/m -9,6 C -0,7 C 8,0 km/h (2 Bft)
11.12.2019 12:00 -0,3 C 51 % 1018,0 hPa 0,0 l/m 4,8 km/h (1 Bft) S-SO 157 15 min 1 UV-I 362 W/m -9,2 C -0,3 C 8,0 km/h (2 Bft)
11.12.2019 11:45 -0,7 C 52 % 1018,3 hPa 0,0 l/m 3,2 km/h (1 Bft) S-SO 157 15 min 1 UV-I 355 W/m -9,3 C -0,7 C 6,4 km/h (2 Bft)
11.12.2019 11:30 -0,9 C 53 % 1018,5 hPa 0,0 l/m 3,2 km/h (1 Bft) S-SO 157 15 min 0 UV-I 306 W/m -9,2 C -0,9 C 4,8 km/h (1 Bft)
11.12.2019 11:15 -1,1 C 56 % 1018,8 hPa 0,0 l/m 1,6 km/h (1 Bft) S-SO 157 15 min 0 UV-I 339 W/m -8,7 C -1,1 C 4,8 km/h (1 Bft)
11.12.2019 11:00 -1,7 C 56 % 1019,1 hPa 0,0 l/m 3,2 km/h (1 Bft) S-SO 157 15 min 0 UV-I 330 W/m -9,3 C -1,7 C 6,4 km/h (2 Bft)
11.12.2019 10:45 -1,8 C 59 % 1019,5 hPa 0,0 l/m 3,2 km/h (1 Bft) S-SO 157 15 min 0 UV-I 308 W/m -8,7 C -1,8 C 6,4 km/h (2 Bft)
11.12.2019 10:30 -2,8 C 59 % 1019,7 hPa 0,0 l/m 3,2 km/h (1 Bft) S-SO 157 15 min 0 UV-I 281 W/m -9,7 C -2,8 C 6,4 km/h (2 Bft)
11.12.2019 10:15 -3,4 C 60 % 1019,7 hPa 0,0 l/m 3,2 km/h (1 Bft) S-SO 157 15 min 0 UV-I 255 W/m -10,0 C -3,4 C 8,0 km/h (2 Bft)
11.12.2019 10:00 -2,7 C 58 % 1019,7 hPa 0,0 l/m 3,2 km/h (1 Bft) N-NW 337 15 min 0 UV-I 225 W/m -9,8 C -2,7 C 6,4 km/h (2 Bft)
11.12.2019 09:45 -3,2 C 61 % 1020,0 hPa 0,0 l/m 1,6 km/h (1 Bft) N-NW 337 15 min 0 UV-I 192 W/m -9,6 C -3,2 C 4,8 km/h (1 Bft)
11.12.2019 09:30 -5,3 C 67 % 1020,0 hPa 0,0 l/m 1,6 km/h (1 Bft) N-NW 337 15 min 0 UV-I 156 W/m -10,4 C -5,3 C 4,8 km/h (1 Bft)
11.12.2019 09:15 -5,7 C 64 % 1019,9 hPa 0,0 l/m 0,0 km/h (0 Bft) N-NW 337 0 min 0 UV-I 26 W/m -11,4 C -5,7 C 3,2 km/h (1 Bft)
11.12.2019 09:00 -5,6 C 62 % 1020,0 hPa 0,0 l/m 0,0 km/h (0 Bft) N 0 0 min 0 UV-I 25 W/m -11,7 C -5,6 C 0,0 km/h (0 Bft)
11.12.2019 08:45 -5,5 C 62 % 1020,3 hPa 0,0 l/m 1,6 km/h (1 Bft) N-NW 337 0 min 0 UV-I 23 W/m -11,6 C -5,5 C 6,4 km/h (2 Bft)
11.12.2019 08:30 -5,8 C 65 % 1020,2 hPa 0,0 l/m 0,0 km/h (0 Bft) N-NW 337 0 min 0 UV-I 19 W/m -11,3 C -5,8 C 6,4 km/h (2 Bft)
11.12.2019 08:15 -5,6 C 63 % 1020,2 hPa 0,0 l/m 1,6 km/h (1 Bft) N-NW 337 0 min 0 UV-I 16 W/m -11,5 C -5,6 C 4,8 km/h (1 Bft)
11.12.2019 08:00 -5,7 C 64 % 1020,3 hPa 0,0 l/m 0,0 km/h (0 Bft) N 0 0 min 0 UV-I 9 W/m -11,4 C -5,7 C 0,0 km/h (0 Bft)
11.12.2019 07:45 -5,5 C 63 % 1020,5 hPa 0,0 l/m 0,0 km/h (0 Bft) N-NW 337 0 min 0 UV-I 0 W/m -11,4 C -5,5 C 4,8 km/h (1 Bft)
11.12.2019 07:30 -5,6 C 64 % 1020,6 hPa 0,0 l/m 1,6 km/h (1 Bft) N-NW 337 0 min 0 UV-I 0 W/m -11,3 C -5,6 C 6,4 km/h (2 Bft)
11.12.2019 07:15 -5,5 C 63 % 1020,6 hPa 0,0 l/m 1,6 km/h (1 Bft) N-NW 337 0 min 0 UV-I 0 W/m -11,4 C -5,5 C 6,4 km/h (2 Bft)
11.12.2019 07:00 -5,3 C 62 % 1020,6 hPa 0,0 l/m 4,8 km/h (1 Bft) N-NW 337 0 min 0 UV-I 0 W/m -11,4 C -5,3 C 6,4 km/h (2 Bft)
11.12.2019 06:45 -5,7 C 65 % 1020,7 hPa 0,0 l/m 3,2 km/h (1 Bft) N-NW 337 0 min 0 UV-I 0 W/m -11,2 C -5,7 C 6,4 km/h (2 Bft)
11.12.2019 06:30 -5,3 C 62 % 1020,8 hPa 0,0 l/m 1,6 km/h (1 Bft) N-NW 337 0 min 0 UV-I 0 W/m -11,4 C -5,3 C 3,2 km/h (1 Bft)
11.12.2019 06:15 -5,3 C 63 % 1021,1 hPa 0,0 l/m 1,6 km/h (1 Bft) N-NW 337 0 min 0 UV-I 0 W/m -11,2 C -5,3 C 3,2 km/h (1 Bft)
11.12.2019 06:00 -5,2 C 63 % 1021,2 hPa 0,0 l/m 3,2 km/h (1 Bft) N-NW 337 0 min 0 UV-I 0 W/m -11,1 C -5,2 C 4,8 km/h (1 Bft)
11.12.2019 05:45 -5,3 C 64 % 1021,4 hPa 0,0 l/m 3,2 km/h (1 Bft) N-NW 337 0 min 0 UV-I 0 W/m -11,0 C -5,3 C 6,4 km/h (2 Bft)
11.12.2019 05:30 -5,2 C 63 % 1021,5 hPa 0,0 l/m 1,6 km/h (1 Bft) N-NW 337 0 min 0 UV-I 0 W/m -11,1 C -5,2 C 6,4 km/h (2 Bft)
11.12.2019 05:15 -5,4 C 62 % 1021,5 hPa 0,0 l/m 4,8 km/h (1 Bft) N-NW 337 0 min 0 UV-I 0 W/m -11,5 C -5,4 C 6,4 km/h (2 Bft)
11.12.2019 05:00 -5,2 C 63 % 1021,5 hPa 0,0 l/m 3,2 km/h (1 Bft) N-NW 337 0 min 0 UV-I 0 W/m -11,1 C -5,2 C 4,8 km/h (1 Bft)
11.12.2019 04:45 -4,9 C 60 % 1021,6 hPa 0,0 l/m 1,6 km/h (1 Bft) N-NW 337 0 min 0 UV-I 0 W/m -11,4 C -4,9 C 6,4 km/h (2 Bft)
11.12.2019 04:30 -4,9 C 60 % 1021,8 hPa 0,0 l/m 4,8 km/h (1 Bft) N-NW 337 0 min 0 UV-I 0 W/m -11,4 C -4,9 C 6,4 km/h (2 Bft)
11.12.2019 04:15 -4,7 C 60 % 1021,9 hPa 0,0 l/m 3,2 km/h (1 Bft) O-NO 67 0 min 0 UV-I 0 W/m -11,3 C -4,7 C 6,4 km/h (2 Bft)
11.12.2019 04:00 -4,4 C 59 % 1022,1 hPa 0,0 l/m 8,0 km/h (2 Bft) O-NO 67 0 min 0 UV-I 0 W/m -11,2 C -6,3 C 14,5 km/h (3 Bft)
11.12.2019 03:45 -4,6 C 61 % 1022,2 hPa 0,0 l/m 8,0 km/h (2 Bft) N-NO 22 0 min 0 UV-I 0 W/m -10,9 C -6,5 C 16,1 km/h (3 Bft)
11.12.2019 03:30 -4,5 C 61 % 1022,4 hPa 0,0 l/m 6,4 km/h (2 Bft) N 360 0 min 0 UV-I 0 W/m -10,9 C -4,4 C 12,9 km/h (3 Bft)
11.12.2019 03:15 -4,5 C 60 % 1022,7 hPa 0,0 l/m 3,2 km/h (1 Bft) N 360 0 min 0 UV-I 0 W/m -11,1 C -4,5 C 11,3 km/h (2 Bft)
11.12.2019 03:00 -4,2 C 59 % 1022,9 hPa 0,0 l/m 6,4 km/h (2 Bft) N 360 0 min 0 UV-I 0 W/m -11,0 C -4,1 C 14,5 km/h (3 Bft)
11.12.2019 02:45 -4,1 C 58 % 1023,0 hPa 0,0 l/m 4,8 km/h (1 Bft) N 360 0 min 0 UV-I 0 W/m -11,1 C -4,1 C 9,7 km/h (2 Bft)
11.12.2019 02:30 -4,3 C 60 % 1023,1 hPa 0,0 l/m 1,6 km/h (1 Bft) N 360 0 min 0 UV-I 0 W/m -10,9 C -4,3 C 8,0 km/h (2 Bft)
11.12.2019 02:15 -3,9 C 58 % 1023,1 hPa 0,0 l/m 3,2 km/h (1 Bft) O-NO 67 0 min 0 UV-I 0 W/m -10,9 C -3,9 C 6,4 km/h (2 Bft)
11.12.2019 02:00 -3,8 C 55 % 1023,2 hPa 0,0 l/m 3,2 km/h (1 Bft) O-NO 67 0 min 0 UV-I 0 W/m -11,5 C -3,8 C 6,4 km/h (2 Bft)
11.12.2019 01:45 -3,9 C 54 % 1023,2 hPa 0,0 l/m 3,2 km/h (1 Bft) O-NO 67 0 min 0 UV-I 0 W/m -11,8 C -3,9 C 6,4 km/h (2 Bft)
11.12.2019 01:30 -3,7 C 54 % 1023,4 hPa 0,0 l/m 3,2 km/h (1 Bft) O-NO 67 0 min 0 UV-I 0 W/m -11,6 C -3,7 C 4,8 km/h (1 Bft)
11.12.2019 01:15 -3,5 C 54 % 1023,5 hPa 0,0 l/m 1,6 km/h (1 Bft) O-NO 67 0 min 0 UV-I 0 W/m -11,4 C -3,5 C 4,8 km/h (1 Bft)
11.12.2019 01:00 -3,4 C 49 % 1023,5 hPa 0,0 l/m 1,6 km/h (1 Bft) O-NO 67 0 min 0 UV-I 0 W/m -12,5 C -3,4 C 4,8 km/h (1 Bft)
11.12.2019 00:45 -3,2 C 48 % 1023,6 hPa 0,0 l/m 3,2 km/h (1 Bft) O-NO 67 0 min 0 UV-I 0 W/m -12,6 C -3,2 C 4,8 km/h (1 Bft)
11.12.2019 00:30 -3,3 C 48 % 1023,6 hPa 0,0 l/m 3,2 km/h (1 Bft) O-NO 67 0 min 0 UV-I 0 W/m -12,7 C -3,3 C 6,4 km/h (2 Bft)
11.12.2019 00:15 -3,1 C 48 % 1023,6 hPa 0,0 l/m 1,6 km/h (1 Bft) O-NO 67 0 min 0 UV-I 0 W/m -12,5 C -3,1 C 4,8 km/h (1 Bft)
11.12.2019 00:00 -2,9 C 49 % 1023,7 hPa 0,0 l/m 1,6 km/h (1 Bft) O-NO 67 0 min 0 UV-I 0 W/m -12,1 C -2,9 C 4,8 km/h (1 Bft)
10.12.2019 23:45 -2,8 C 48 % 1023,8 hPa 0,0 l/m 4,8 km/h (1 Bft) O-NO 67 0 min 0 UV-I 0 W/m -12,2 C -2,8 C 11,3 km/h (2 Bft)
10.12.2019 23:30 -2,6 C 50 % 1023,8 hPa 0,0 l/m 4,8 km/h (1 Bft) O-NO 67 0 min 0 UV-I 0 W/m -11,6 C -2,6 C 14,5 km/h (3 Bft)
10.12.2019 23:15 -2,4 C 54 % 1023,8 hPa 0,0 l/m 4,8 km/h (1 Bft) O-NO 67 0 min 0 UV-I 0 W/m -10,4 C -2,4 C 12,9 km/h (3 Bft)
10.12.2019 23:00 -2,4 C 51 % 1023,7 hPa 0,0 l/m 3,2 km/h (1 Bft) O-NO 67 0 min 0 UV-I 0 W/m -11,1 C -2,4 C 8,0 km/h (2 Bft)
10.12.2019 22:45 -2,1 C 51 % 1023,8 hPa 0,0 l/m 3,2 km/h (1 Bft) O-NO 67 0 min 0 UV-I 0 W/m -10,8 C -2,1 C 12,9 km/h (3 Bft)
10.12.2019 22:30 -1,8 C 53 % 1023,9 hPa 0,0 l/m 4,8 km/h (1 Bft) N-NO 22 0 min 0 UV-I 0 W/m -10,1 C -1,8 C 14,5 km/h (3 Bft)
10.12.2019 22:15 -1,6 C 52 % 1023,9 hPa 0,0 l/m 6,4 km/h (2 Bft) N-NO 22 0 min 0 UV-I 0 W/m -10,1 C -1,6 C 12,9 km/h (3 Bft)
10.12.2019 22:00 -1,5 C 52 % 1023,9 hPa 0,0 l/m 6,4 km/h (2 Bft) NO 45 0 min 0 UV-I 0 W/m -10,0 C -1,5 C 14,5 km/h (3 Bft)
10.12.2019 21:45 -1,6 C 52 % 1024,0 hPa 0,0 l/m 6,4 km/h (2 Bft) NO 45 0 min 0 UV-I 0 W/m -10,1 C -1,6 C 12,9 km/h (3 Bft)
10.12.2019 21:30 -1,2 C 50 % 1024,1 hPa 0,0 l/m 8,0 km/h (2 Bft) N-NO 22 0 min 0 UV-I 0 W/m -10,3 C -2,9 C 14,5 km/h (3 Bft)
10.12.2019 21:15 -1,4 C 49 % 1024,4 hPa 0,0 l/m 3,2 km/h (1 Bft) NO 45 0 min 0 UV-I 0 W/m -10,7 C -1,4 C 14,5 km/h (3 Bft)
10.12.2019 21:00 -1,7 C 49 % 1024,4 hPa 0,0 l/m 1,6 km/h (1 Bft) NO 45 0 min 0 UV-I 0 W/m -11,0 C -1,7 C 4,8 km/h (1 Bft)
10.12.2019 20:45 -1,3 C 48 % 1024,4 hPa 0,0 l/m 1,6 km/h (1 Bft) NO 45 0 min 0 UV-I 0 W/m -10,9 C -1,3 C 4,8 km/h (1 Bft)
10.12.2019 20:30 -0,8 C 48 % 1024,3 hPa 0,0 l/m 4,8 km/h (1 Bft) NO 45 0 min 0 UV-I 0 W/m -10,4 C -0,8 C 11,3 km/h (2 Bft)
10.12.2019 20:15 -1,0 C 49 % 1024,3 hPa 0,0 l/m 6,4 km/h (2 Bft) O-NO 67 0 min 0 UV-I 0 W/m -10,3 C -1,0 C 14,5 km/h (3 Bft)
10.12.2019 20:00 -1,1 C 50 % 1024,1 hPa 0,0 l/m 8,0 km/h (2 Bft) O-NO 67 0 min 0 UV-I 0 W/m -10,2 C -2,8 C 16,1 km/h (3 Bft)
10.12.2019 19:45 -1,3 C 52 % 1024,1 hPa 0,0 l/m 9,7 km/h (2 Bft) O-NO 67 0 min 0 UV-I 0 W/m -9,9 C -4,6 C 16,1 km/h (3 Bft)
10.12.2019 19:30 -1,1 C 52 % 1024,1 hPa 0,0 l/m 8,0 km/h (2 Bft) N 360 0 min 0 UV-I 0 W/m -9,7 C -2,8 C 16,1 km/h (3 Bft)
10.12.2019 19:15 -0,9 C 50 % 1024,0 hPa 0,0 l/m 8,0 km/h (2 Bft) N-NO 22 0 min 0 UV-I 0 W/m -10,0 C -2,6 C 20,9 km/h (4 Bft)
10.12.2019 19:00 -0,6 C 50 % 1024,0 hPa 0,0 l/m 11,3 km/h (2 Bft) N 360 0 min 0 UV-I 0 W/m -9,7 C -5,2 C 19,3 km/h (3 Bft)
10.12.2019 18:45 0,2 C 45 % 1023,9 hPa 0,0 l/m 9,7 km/h (2 Bft) N 360 0 min 0 UV-I 0 W/m -10,3 C -3,0 C 17,7 km/h (3 Bft)
10.12.2019 18:30 -0,2 C 47 % 1023,9 hPa 0,0 l/m 4,8 km/h (1 Bft) NO 45 0 min 0 UV-I 0 W/m -10,1 C -0,2 C 14,5 km/h (3 Bft)
10.12.2019 18:15 0,0 C 45 % 1023,8 hPa 0,0 l/m 3,2 km/h (1 Bft) NO 45 0 min 0 UV-I 0 W/m -10,5 C 0,0 C 8,0 km/h (2 Bft)
10.12.2019 18:00 0,3 C 45 % 1023,6 hPa 0,0 l/m 1,6 km/h (1 Bft) O 90 0 min 0 UV-I 0 W/m -10,2 C 0,3 C 4,8 km/h (1 Bft)
_ Min-Zeit 08:30 15:15 17:00 - 16:45 - - - - - 00:30 03:45 09:00
Minimum _ -5,8 C 41 % 1013,9 hPa - 0,0 km/h (0 Bft) - - - - - -12,7 C -6,5 C 0,0 km/h (0 Bft)
_ Max-Zeit 14:45 09:30 21:15 17:00 19:00 - - 15:00 12:00 12:15 12:30 15:15 19:15
Maximum _ 2,4 C 67 % 1024,4 hPa 0,0 l/m 11,3 km/h
N (2 Bft)
- - 15 min 1 UV-I 364 W/m -8,4 C 2,3 C 20,9 km/h
N (4 Bft)
Durchschnitt _ -2,2 C 53 % 1021,0 hPa #0,0 l/m 3,4 km/h (1 Bft) N-NW - #5:45 h 1 UV-I 204 W/m -10,5 C -2,4 C 7,9 km/h (2 Bft)